DW9727 Weather Reports


time (UTC)temp
C
wind
direction
speed
KPH
gust
KPH
rain 1hr
cm
rain 24hr
cm
rain mn
cm
humidity
%
barometer
mb
20260510061710 9 22 0.0 0.0 0.00 0.00 0.00 49 1017.9
20260510060710 9 22 0.0 0.0 0.00 0.00 0.00 48 1017.9
20260510055711 10 22 0.0 3.2 0.00 0.00 0.00 47 1018.0
20260510054711 10 42 0.0 3.2 0.00 0.00 0.00 46 1018.0
20260510053710 10 38 1.6 3.2 0.00 0.00 0.00 45 1018.1
20260510051711 11 336 3.2 9.7 0.00 0.00 0.00 44 1017.5
20260510050710 11 10 4.8 12.9 0.00 0.00 0.00 44 1017.4
20260510045711 12 10 8.0 12.9 0.00 0.00 0.00 42 1017.1
20260510044710 12 32 8.0 20.9 0.00 0.00 0.00 42 1017.1
20260510043711 12 43 9.7 20.9 0.00 0.00 0.00 41 1016.8
20260510041711 12 353 8.0 19.3 0.00 0.00 0.00 42 1016.6
20260510040711 12 28 8.0 16.1 0.00 0.00 0.00 42 1016.6
20260510035711 13 13 4.8 16.1 0.00 0.00 0.00 42 1016.5
20260510034710 13 5 8.0 14.5 0.00 0.00 0.00 42 1016.4
20260510033711 13 36 4.8 14.5 0.00 0.00 0.00 42 1016.2
20260510031710 13 5 6.4 14.5 0.00 0.00 0.00 41 1015.6
20260510030710 14 3 4.8 14.5 0.00 0.00 0.00 41 1015.3
20260510025711 14 9 6.4 14.5 0.00 0.00 0.00 40 1015.2
20260510024711 15 0 6.4 14.5 0.00 0.00 0.00 40 1014.9
20260510022710 15 8 8.0 14.5 0.00 0.00 0.00 38 1014.4
20260510021711 16 327 8.0 20.9 0.00 0.00 0.00 37 1014.2
20260510015710 16 0 9.7 19.3 0.00 0.00 0.00 35 1013.7
20260510014710 17 3 8.0 14.5 0.00 0.00 0.00 34 1013.5
20260510013710 17 24 8.0 19.3 0.00 0.00 0.00 34 1013.1
20260510012710 18 17 9.7 20.9 0.00 0.00 0.00 34 1012.9
20260510011710 18 335 11.3 19.3 0.00 0.00 0.00 33 1012.7
20260510010710 18 0 11.3 20.9 0.00 0.00 0.00 33 1012.4
20260510005711 19 335 4.8 19.3 0.00 0.00 0.00 32 1012.2
20260510004710 19 5 8.0 20.9 0.00 0.00 0.00 31 1012.1
20260510003710 20 353 12.9 22.5 0.00 0.00 0.00 30 1012.0
20260510002710 20 26 12.9 27.4 0.00 0.00 0.00 30 1011.9
20260510000710 20 358 16.1 24.1 0.00 0.00 0.00 33 1011.5
20260509235711 20 11 8.0 19.3 0.00 0.00 0.00 37 1011.5
20260509234711 20 15 6.4 19.3 0.00 0.00 0.00 42 1011.3
20260509233711 19 0 9.7 16.1 0.00 0.00 0.00 43 1011.3
20260509231710 19 33 8.0 14.5 0.00 0.00 0.00 45 1011.4
20260509230711 19 0 3.2 11.3 0.00 0.00 0.00 45 1011.3
20260509225711 19 16 6.4 19.3 0.00 0.00 0.00 43 1011.4
20260509224710 19 330 8.0 14.5 0.00 0.00 0.00 44 1011.4
20260509223710 19 358 6.4 16.1 0.00 0.00 0.00 45 1011.3
20260509222710 19 1 9.7 22.5 0.00 0.00 0.00 44 1011.4
20260509221711 19 302 4.8 14.5 0.00 0.00 0.00 48 1011.4
20260509220710 19 335 4.8 19.3 0.00 0.00 0.00 47 1011.3
20260509215710 20 329 4.8 19.3 0.00 0.00 0.00 48 1011.5
20260509214710 20 11 8.0 19.3 0.00 0.00 0.00 45 1011.3
20260509213710 20 5 12.9 27.4 0.00 0.00 0.00 45 1011.3
20260509212710 20 22 8.0 20.9 0.00 0.00 0.00 47 1011.1
20260509211710 20 5 9.7 14.5 0.00 0.00 0.00 48 1011.1
20260509210710 20 49 4.8 12.9 0.00 0.00 0.00 45 1011.0
20260509205710 20 9 4.8 19.3 0.00 0.00 0.00 44 1011.0
20260509202710 20 59 12.9 22.5 0.00 0.00 0.00 42 1010.9
20260509200711 20 28 16.1 32.2 0.00 0.00 0.00 42 1010.4
20260509195710 20 331 14.5 29.0 0.00 0.00 0.00 42 1010.2
20260509194711 21 5 16.1 29.0 0.00 0.00 0.00 40 1010.1
20260509193711 21 51 17.7 32.2 0.00 0.00 0.00 42 1009.9
20260509192711 21 334 20.9 33.8 0.00 0.00 0.00 39 1009.7
20260509191710 22 306 19.3 37.0 0.00 0.00 0.00 39 1009.3
20260509190711 24 9 19.3 32.2 0.00 0.00 0.00 33 1008.9
20260509185711 25 13 17.7 35.4 0.00 0.00 0.00 28 1008.5
20260509184711 25 19 16.1 35.4 0.00 0.00 0.00 31 1008.2
20260509180710 23 56 9.7 19.3 0.00 0.00 0.00 30 1007.8
20260509172710 22 334 14.5 22.5 0.00 0.00 0.00 30 1008.3
20260509171710 23 22 12.9 25.7 0.00 0.00 0.00 36 1008.2
20260509170710 22 313 9.7 25.7 0.00 0.00 0.00 36 1008.2
20260509165711 22 338 8.0 20.9 0.00 0.00 0.00 30 1008.2
20260509164711 22 5 11.3 20.9 0.00 0.00 0.00 31 1008.2
20260509162710 22 29 9.7 20.9 0.00 0.00 0.00 33 1007.7
20260509160711 21 52 0.0 8.0 0.00 0.00 0.00 42 1007.5
20260509155710 21 302 3.2 8.0 0.00 0.00 0.00 31 1007.4
20260509154710 21 9 1.6 8.0 0.00 0.00 0.00 36 1007.5
20260509153710 21 9 1.6 9.7 0.00 0.00 0.00 36 1007.5
20260509152710 21 333 1.6 16.1 0.00 0.00 0.00 37 1007.7
20260509151710 21 313 6.4 14.5 0.00 0.00 0.00 38 1007.8
20260509150710 20 357 6.4 19.3 0.00 0.00 0.00 38 1007.9
20260509145711 20 323 8.0 14.5 0.00 0.00 0.00 38 1007.9
20260509144710 20 309 9.7 19.3 0.00 0.00 0.00 44 1008.0
20260509143710 19 339 4.8 19.3 0.00 0.00 0.00 39 1007.8
20260509142710 18 331 6.4 20.9 0.00 0.00 0.00 44 1007.8
20260509141710 18 215 16.1 22.5 0.00 0.00 0.00 38 1007.0
20260509135710 16 218 11.3 19.3 0.00 0.00 0.00 43 1007.3
20260509134711 15 245 11.3 19.3 0.00 0.00 0.00 48 1007.2
20260509132710 13 219 4.8 11.3 0.00 0.00 0.00 56 1007.3
20260509131710 12 224 8.0 11.3 0.00 0.00 0.00 57 1007.4
20260509130711 11 250 8.0 12.9 0.00 0.00 0.00 60 1007.6
20260509125710 10 271 1.6 8.0 0.00 0.00 0.00 65 1007.6
20260509124710 9 232 1.6 4.8 0.00 0.00 0.00 66 1007.3
20260509123711 8 216 3.2 11.3 0.00 0.00 0.00 68 1007.1
20260509122711 7 214 6.4 8.0 0.00 0.00 0.00 71 1007.2
20260509120710 7 234 1.6 4.8 0.00 0.00 0.00 72 1007.0
20260509115710 7 251 1.6 3.2 0.00 0.00 0.00 72 1007.1
20260509114711 6 251 0.0 3.2 0.00 0.00 0.00 74 1007.0
20260509113711 6 251 1.6 3.2 0.00 0.00 0.00 73 1006.9
20260509111710 6 253 0.0 0.0 0.00 0.00 0.00 70 1006.8
20260509110710 6 252 0.0 3.2 0.00 0.00 0.00 71 1006.7
20260509105711 6 252 1.6 4.8 0.00 0.00 0.00 71 1006.6
20260509104711 6 261 3.2 4.8 0.00 0.00 0.00 71 1006.7
20260509103710 6 241 3.2 4.8 0.00 0.00 0.00 70 1006.9
20260509102710 6 228 1.6 3.2 0.00 0.00 0.00 70 1006.6
20260509101710 6 228 0.0 0.0 0.00 0.00 0.00 71 1006.5
20260509100710 6 228 0.0 0.0 0.00 0.00 0.00 69 1006.5
20260509095711 6 228 0.0 0.0 0.00 0.00 0.00 69 1006.5
20260509094711 6 204 0.0 0.0 0.00 0.00 0.00 68 1006.6
20260509093711 6 204 0.0 0.0 0.00 0.00 0.00 68 1006.8
20260509092711 7 204 0.0 0.0 0.00 0.00 0.00 68 1006.9
20260509091711 7 204 0.0 0.0 0.00 0.00 0.00 69 1006.8
20260509090711 7 204 0.0 0.0 0.00 0.00 0.00 65 1006.8
20260509085711 7 204 0.0 1.6 0.00 0.00 0.00 66 1006.7
20260509084711 7 204 0.0 4.8 0.00 0.00 0.00 65 1006.5
20260509083711 7 200 1.6 3.2 0.00 0.00 0.00 68 1006.5
20260509082710 7 261 3.2 3.2 0.00 0.00 0.00 69 1006.5
20260509075710 7 289 0.0 1.6 0.00 0.00 0.00 66 1006.4
20260509074711 8 289 0.0 3.2 0.00 0.00 0.00 66 1006.6
20260509073711 8 289 0.0 3.2 0.00 0.00 0.00 64 1006.6
20260509072710 8 289 1.6 1.6 0.00 0.00 0.00 63 1006.7
20260509071710 8 288 0.0 3.2 0.00 0.00 0.00 61 1006.8
20260509070710 8 289 0.0 0.0 0.00 0.00 0.00 58 1006.6
20260509065710 8 289 0.0 3.2 0.00 0.00 0.00 57 1006.7
20260509064710 8 288 0.0 3.2 0.00 0.00 0.00 55 1006.8
20260509063711 9 288 1.6 3.2 0.00 0.00 0.00 55 1006.9
20260509062711 9 288 0.0 0.0 0.00 0.00 0.00 54 1006.9